This is the latest recevied weather packets stored in our database for station/object WA7CUG. If no packets are shown the sender has not sent any weather packets the latest 10 day(s).
| Time | Temp. | Humidity | Pressure | Rain* | Wind** | Luminosity | Snow |
|---|---|---|---|---|---|---|---|
| 1778034917 | 25° C | 40% | 1009.1 hPa | 0 mm | - | 37 W/m² | - |
| 1778034615 | 24.44° C | 47% | 1009.1 hPa | 0 mm | - | 45 W/m² | - |
| 1778034312 | 26.11° C | 49% | 1008.9 hPa | 0 mm | - | 52 W/m² | - |
| 1778034009 | 26.11° C | 50% | 1009.1 hPa | 0 mm | - | 60 W/m² | - |
| 1778033707 | 27.22° C | 47% | 1008.9 hPa | 0 mm | - | 69 W/m² | - |
| 1778033404 | 26.67° C | 46% | 1008.9 hPa | 0 mm | - | 78 W/m² | - |
| 1778033101 | 27.78° C | 45% | 1008.8 hPa | 0 mm | - | 87 W/m² | - |
| 1778032798 | 27.78° C | 36% | 1008.8 hPa | 0 mm | - | 97 W/m² | - |
| 1778032496 | 27.78° C | 38% | 1009 hPa | 0 mm | - | 108 W/m² | - |
| 1778032192 | 28.89° C | 39% | 1008.9 hPa | 0 mm | - | 119 W/m² | - |
| 1778031890 | 28.89° C | 40% | 1008.9 hPa | 0 mm | - | 131 W/m² | - |
| 1778031585 | 30.56° C | 42% | 1008.8 hPa | 0 mm | - | 143 W/m² | - |
| 1778031284 | 30.56° C | 37% | 1008.8 hPa | 0 mm | - | 156 W/m² | - |
| 1778030980 | 29.44° C | 28% | 1009 hPa | 0 mm | - | 167 W/m² | - |
| 1778030676 | 28.89° C | 30% | 1008.7 hPa | 0 mm | - | 180 W/m² | - |
| 1778030373 | 29.44° C | 30% | 1008.9 hPa | 0 mm | - | 194 W/m² | - |
| 1778030072 | 28.89° C | 29% | 1008.8 hPa | 0 mm | - | 205 W/m² | - |
| 1778029767 | 28.89° C | 31% | 1009 hPa | 0 mm | - | 218 W/m² | - |
| 1778029467 | 28.89° C | 28% | 1009.2 hPa | 0 mm | - | 232 W/m² | - |
| 1778029162 | 29.44° C | 27% | 1009.1 hPa | 0 mm | - | 246 W/m² | - |
| 1778028860 | 28.89° C | 29% | 1009.2 hPa | 0 mm | - | 258 W/m² | - |
| 1778028555 | 28.89° C | 27% | 1009.1 hPa | 0 mm | - | 272 W/m² | - |
| 1778028254 | 28.89° C | 29% | 1009.2 hPa | 0 mm | - | 286 W/m² | - |
| 1778027949 | 29.44° C | 29% | 1009.3 hPa | 0 mm | - | 299 W/m² | - |
| 1778027645 | 28.89° C | 28% | 1009.1 hPa | 0 mm | - | 313 W/m² | - |
* Rain latest hour (hover to see other rain measurements)
** Current wind speed in m/s (hover to see current wind gust speed)